Precipitable_Water
0.21 0.14 0.15 0.13 0.13 0.15 0.16 0.16 0.18 0.19 0.21 0.22 0.23 0.21 0.21 0.18 0.19 0.20 0.19 0.22 0.21 0.16 0.15 0.15 0.16 0.15 0.16 0.18 0.18 0.18 0.24 0.26 0.25 0.28 0.38 0.50 0.67 0.76 0.72 0.69 0.80 0.79 0.78 0.80 0.97 1.06 1.21 1.23 1.18 1.13 1.10 1.10 1.16 1.19 1.23 1.25 1.26 1.30 1.31 1.33 1.31 1.42 1.45 1.44 1.40 1.40 1.42 1.36 1.37 1.42 1.38 1.28 1.36 1.36 1.39 1.41 1.43 1.45 1.45 1.47 1.49 1.45 1.42 1.41 1.40 1.40
0.22 0.15 0.16 0.17 0.14 0.16 0.20 0.20 0.18 0.20 0.26 0.25 0.22 0.20 0.17 0.17 0.15 0.18 0.18 0.25 0.25 0.18 0.16 0.17 0.16 0.16 0.17 0.17 0.17 0.19 0.21 0.24 0.25 0.24 0.28 0.38 0.48 0.56 0.72 0.77 0.77 0.84 0.84 0.87 0.95 1.00 1.12 1.14 1.18 1.19 1.11 1.09 1.06 1.14 1.21 1.24 1.28 1.33 1.36 1.34 1.39 1.43 1.48 1.48 1.49 1.51 1.48 1.43 1.39 1.36 1.33 1.35 1.34 1.37 1.36 1.35 1.41 1.43 1.50 1.48 1.47 1.45 1.38 1.38 1.35 1.34
0.19 0.15 0.16 0.19 0.19 0.18 0.21 0.24 0.23 0.21 0.25 0.25 0.21 0.19 0.16 0.18 0.18 0.21 0.22 0.25 0.24 0.20 0.16 0.16 0.15 0.16 0.19 0.19 0.18 0.17 0.19 0.23 0.28 0.26 0.27 0.29 0.35 0.43 0.57 0.72 0.83 0.82 0.74 0.64 0.71 1.00 1.10 1.14 1.16 1.18 1.16 1.13 1.11 1.13 1.18 1.26 1.29 1.28 1.31 1.36 1.40 1.44 1.46 1.51 1.51 1.49 1.49 1.49 1.50 1.45 1.45 1.41 1.40 1.44 1.44 1.42 1.48 1.46 1.46 1.52 1.49 1.44 1.36 1.38 1.33 1.36
0.19 0.18 0.16 0.19 0.21 0.21 0.23 0.25 0.26 0.24 0.22 0.20 0.19 0.17 0.16 0.18 0.17 0.16 0.20 0.26 0.25 0.20 0.18 0.19 0.18 0.17 0.19 0.20 0.19 0.20 0.18 0.20 0.25 0.24 0.24 0.27 0.28 0.32 0.39 0.50 0.83 0.85 0.76 0.69 0.76 0.89 1.02 1.11 1.15 1.16 1.16 1.15 1.16 1.15 1.18 1.22 1.22 1.25 1.27 1.34 1.40 1.45 1.46 1.44 1.42 1.47 1.52 1.55 1.58 1.53 1.52 1.51 1.43 1.42 1.46 1.43 1.44 1.45 1.40 1.47 1.45 1.45 1.41 1.35 1.34 1.32
0.20 0.22 0.26 0.21 0.21 0.24 0.23 0.23 0.21 0.19 0.18 0.18 0.17 0.19 0.18 0.17 0.18 0.15 0.19 0.26 0.27 0.26 0.24 0.20 0.17 0.15 0.15 0.14 0.15 0.17 0.19 0.19 0.22 0.25 0.24 0.23 0.25 0.28 0.32 0.37 0.67 0.65 0.67 0.67 0.68 0.81 0.95 1.06 1.12 1.13 1.15 1.18 1.14 1.13 1.13 1.15 1.15 1.21 1.30 1.38 1.41 1.34 1.31 1.35 1.44 1.46 1.51 1.50 1.48 1.45 1.48 1.47 1.37 1.42 1.41 1.35 1.34 1.40 1.41 1.37 1.40 1.38 1.37 1.35 1.29 1.29
0.20 0.24 0.32 0.26 0.23 0.25 0.22 0.20 0.19 0.19 0.16 0.18 0.20 0.18 0.19 0.21 0.21 0.20 0.21 0.23 0.22 0.20 0.21 0.18 0.12 0.12 0.14 0.14 0.13 0.15 0.17 0.18 0.19 0.22 0.23 0.23 0.22 0.23 0.25 0.28 0.35 0.67 0.64 0.70 0.71 0.74 0.73 0.94 1.14 1.17 1.09 1.07 1.09 1.09 1.11 1.14 1.16 1.23 1.34 1.35 1.37 1.35 1.46 1.50 1.46 1.46 1.43 1.46 1.42 1.34 1.27 1.29 1.33 1.26 1.26 1.26 1.27 1.27 1.22 1.25 1.41 1.43 1.34 1.29 1.26 1.26
0.21 0.27 0.29 0.27 0.24 0.22 0.20 0.18 0.22 0.20 0.17 0.16 0.19 0.22 0.20 0.19 0.21 0.21 0.22 0.21 0.16 0.15 0.18 0.18 0.15 0.13 0.16 0.15 0.17 0.20 0.19 0.19 0.23 0.22 0.23 0.23 0.23 0.22 0.23 0.25 0.29 0.43 0.77 0.75 0.72 0.72 0.68 0.84 1.06 1.08 1.04 1.02 1.01 1.02 1.13 1.21 1.26 1.34 1.34 1.33 1.38 1.41 1.36 1.44 1.49 1.52 1.48 1.46 1.42 1.36 1.35 1.36 1.31 1.25 1.31 1.42 1.41 1.29 1.23 1.37 1.42 1.36 1.29 1.28 1.26 1.25
0.23 0.25 0.30 0.29 0.24 0.20 0.19 0.16 0.20 0.23 0.18 0.15 0.20 0.24 0.25 0.22 0.20 0.19 0.18 0.17 0.16 0.19 0.19 0.22 0.22 0.18 0.16 0.17 0.18 0.23 0.24 0.24 0.30 0.30 0.25 0.25 0.26 0.27 0.27 0.26 0.27 0.33 0.44 0.78 0.75 0.75 0.83 0.93 0.95 0.92 0.90 0.96 0.99 1.07 1.20 1.33 1.35 1.42 1.34 1.34 1.44 1.42 1.39 1.45 1.51 1.47 1.51 1.44 1.41 1.38 1.34 1.33 1.28 1.32 1.27 1.39 1.36 1.32 1.31 1.34 1.35 1.28 1.23 1.27 1.28 1.25
0.28 0.25 0.30 0.26 0.22 0.21 0.19 0.19 0.22 0.23 0.19 0.19 0.21 0.24 0.23 0.21 0.19 0.17 0.17 0.18 0.18 0.17 0.14 0.17 0.21 0.15 0.13 0.15 0.18 0.20 0.22 0.26 0.27 0.27 0.36 0.45 0.46 0.49 0.46 0.40 0.35 0.30 0.34 0.65 0.82 0.77 0.80 0.95 0.90 0.88 0.91 1.01 1.08 1.15 1.22 1.31 1.36 1.37 1.35 1.36 1.41 1.46 1.39 1.43 1.52 1.48 1.48 1.46 1.43 1.39 1.33 1.28 1.30 1.36 1.38 1.32 1.35 1.34 1.33 1.33 1.28 1.26 1.27 1.27 1.26 1.23
0.29 0.29 0.31 0.26 0.24 0.20 0.22 0.24 0.24 0.25 0.19 0.20 0.24 0.27 0.24 0.21 0.20 0.19 0.18 0.16 0.16 0.16 0.13 0.16 0.20 0.17 0.18 0.20 0.19 0.18 0.20 0.26 0.28 0.34 0.54 0.57 0.58 0.58 0.55 0.54 0.54 0.43 0.37 0.69 0.80 0.80 0.82 0.95 0.99 0.96 1.00 1.06 1.09 1.22 1.25 1.29 1.30 1.38 1.34 1.33 1.35 1.33 1.42 1.47 1.52 1.62 1.52 1.49 1.45 1.40 1.40 1.36 1.37 1.39 1.40 1.36 1.29 1.27 1.24 1.26 1.27 1.29 1.26 1.24 1.24 1.22
0.33 0.34 0.35 0.31 0.26 0.25 0.25 0.24 0.25 0.27 0.23 0.26 0.26 0.24 0.21 0.18 0.17 0.17 0.16 0.17 0.17 0.14 0.15 0.19 0.19 0.17 0.15 0.20 0.22 0.20 0.24 0.33 0.47 0.55 0.57 0.62 0.61 0.57 0.52 0.54 0.49 0.52 0.44 0.68 0.84 0.87 0.88 1.03 1.03 1.03 1.00 1.08 1.16 1.19 1.24 1.25 1.29 1.27 1.24 1.26 1.28 1.41 1.50 1.53 1.53 1.60 1.49 1.44 1.44 1.40 1.38 1.37 1.34 1.37 1.34 1.28 1.25 1.25 1.21 1.19 1.22 1.27 1.23 1.23 1.18 1.21
0.30 0.32 0.30 0.30 0.29 0.29 0.28 0.26 0.26 0.26 0.26 0.23 0.21 0.17 0.16 0.16 0.17 0.18 0.19 0.19 0.14 0.13 0.18 0.21 0.20 0.19 0.14 0.19 0.23 0.38 0.37 0.48 0.46 0.52 0.55 0.58 0.58 0.56 0.60 0.68 0.67 0.63 0.59 0.81 0.91 0.91 0.93 0.93 0.97 1.02 1.00 1.03 1.05 1.10 1.17 1.18 1.17 1.19 1.17 1.19 1.21 1.28 1.33 1.53 1.60 1.46 1.41 1.41 1.41 1.39 1.38 1.34 1.34 1.32 1.28 1.27 1.22 1.17 1.07 1.09 1.22 1.24 1.20 1.15 1.15 1.15
0.21 0.24 0.29 0.27 0.27 0.27 0.26 0.22 0.26 0.27 0.26 0.23 0.21 0.18 0.14 0.14 0.17 0.15 0.18 0.15 0.15 0.15 0.19 0.21 0.21 0.20 0.19 0.22 0.26 0.45 0.53 0.54 0.51 0.53 0.54 0.55 0.56 0.65 0.67 0.68 0.60 0.60 0.86 0.91 0.92 0.94 0.96 0.96 0.97 0.97 0.98 0.99 0.99 1.05 1.10 1.14 1.13 1.13 1.15 1.15 1.16 1.17 1.19 1.22 1.32 1.36 1.40 1.43 1.45 1.43 1.40 1.36 1.34 1.32 1.30 1.25 1.13 1.08 1.09 1.23 1.23 1.20 1.09 1.07 1.04 1.06
0.24 0.27 0.27 0.26 0.26 0.25 0.26 0.18 0.21 0.22 0.22 0.20 0.18 0.17 0.14 0.13 0.14 0.15 0.18 0.18 0.18 0.20 0.20 0.24 0.27 0.20 0.23 0.30 0.36 0.51 0.54 0.53 0.52 0.55 0.55 0.57 0.63 0.67 0.68 0.70 0.73 0.85 0.91 0.93 0.97 0.99 1.01 1.01 1.01 0.98 0.97 1.00 1.01 1.05 1.07 1.09 1.08 1.10 1.13 1.13 1.16 1.14 1.15 1.09 1.12 1.20 1.34 1.41 1.44 1.44 1.39 1.38 1.39 1.38 1.35 1.25 1.14 1.10 1.22 1.32 1.26 1.13 1.08 1.03 1.02 0.99
0.19 0.21 0.25 0.25 0.21 0.26 0.22 0.21 0.22 0.23 0.23 0.19 0.19 0.17 0.16 0.15 0.15 0.15 0.18 0.17 0.18 0.19 0.23 0.26 0.22 0.20 0.20 0.22 0.40 0.52 0.56 0.52 0.54 0.57 0.62 0.63 0.67 0.72 0.76 0.76 0.79 0.82 0.89 0.95 0.96 0.98 1.01 1.00 1.00 0.94 0.95 0.96 0.97 1.00 1.06 1.06 1.05 1.08 1.08 1.09 1.07 1.07 1.04 1.04 1.10 1.09 1.21 1.35 1.39 1.38 1.36 1.37 1.41 1.39 1.34 1.24 1.20 1.20 1.36 1.29 1.15 1.09 1.07 1.06 1.04 1.02
0.22 0.21 0.28 0.33 0.30 0.30 0.23 0.23 0.24 0.24 0.23 0.23 0.20 0.19 0.17 0.17 0.21 0.18 0.23 0.24 0.25 0.23 0.21 0.27 0.23 0.25 0.31 0.44 0.48 0.54 0.56 0.52 0.51 0.57 0.60 0.64 0.71 0.72 0.78 0.80 0.83 0.83 0.85 0.91 0.93 0.94 1.00 1.06 1.03 0.99 0.96 0.96 0.95 0.97 1.00 1.01 1.01 1.00 1.03 1.06 1.11 1.07 1.05 1.09 1.13 1.14 1.17 1.30 1.37 1.37 1.31 1.28 1.36 1.37 1.31 1.29 1.29 1.33 1.30 1.17 1.11 1.08 1.05 1.05 1.06 1.07
0.23 0.21 0.27 0.30 0.33 0.31 0.30 0.28 0.24 0.24 0.18 0.25 0.22 0.17 0.18 0.23 0.23 0.22 0.22 0.26 0.28 0.24 0.20 0.27 0.26 0.27 0.41 0.34 0.47 0.50 0.51 0.51 0.52 0.54 0.59 0.65 0.73 0.81 0.79 0.84 0.88 0.95 0.91 0.95 0.95 0.96 1.00 1.03 1.03 1.01 0.99 0.98 0.97 0.97 0.97 1.00 0.99 0.98 1.00 1.04 1.09 1.12 1.14 1.16 1.20 1.18 1.22 1.28 1.30 1.33 1.34 1.29 1.26 1.30 1.29 1.21 1.26 1.24 1.22 1.19 1.12 1.07 1.05 1.09 1.09 1.07
0.21 0.21 0.26 0.28 0.28 0.30 0.31 0.31 0.28 0.24 0.24 0.26 0.22 0.24 0.24 0.25 0.25 0.23 0.21 0.24 0.21 0.17 0.18 0.20 0.19 0.21 0.25 0.25 0.47 0.56 0.46 0.51 0.57 0.57 0.61 0.66 0.69 0.72 0.77 0.81 0.88 0.95 0.93 0.94 0.95 0.95 0.97 0.97 0.97 0.98 0.99 0.97 0.97 0.98 0.99 1.00 1.03 1.04 1.04 1.06 1.07 1.12 1.11 1.17 1.19 1.21 1.23 1.23 1.25 1.29 1.32 1.34 1.34 1.30 1.32 1.31 1.26 1.24 1.19 1.14 1.09 1.09 1.11 1.10 1.11 1.10
0.24 0.19 0.23 0.27 0.29 0.30 0.29 0.28 0.26 0.27 0.26 0.22 0.24 0.32 0.22 0.20 0.17 0.22 0.22 0.17 0.18 0.18 0.17 0.18 0.21 0.23 0.23 0.31 0.36 0.45 0.55 0.55 0.55 0.60 0.60 0.61 0.71 0.72 0.81 0.87 0.90 0.94 0.94 0.93 0.95 0.97 0.96 0.95 0.96 0.97 0.98 0.99 0.99 1.01 1.00 1.02 1.04 1.05 1.09 1.10 1.13 1.12 1.11 1.12 1.15 1.18 1.22 1.24 1.22 1.25 1.26 1.29 1.29 1.28 1.31 1.33 1.29 1.24 1.16 1.09 1.08 1.11 1.14 1.11 1.11 1.04
0.33 0.21 0.24 0.30 0.28 0.30 0.29 0.24 0.18 0.21 0.25 0.24 0.26 0.27 0.29 0.27 0.26 0.23 0.21 0.20 0.20 0.18 0.17 0.18 0.20 0.19 0.34 0.39 0.43 0.48 0.56 0.57 0.54 0.55 0.60 0.66 0.72 0.75 0.78 0.81 0.84 0.84 0.88 0.93 0.96 0.99 1.01 1.02 1.03 1.07 1.08 1.05 1.04 1.05 1.08 1.08 1.09 1.07 1.12 1.15 1.17 1.15 1.14 1.12 1.13 1.17 1.16 1.20 1.19 1.16 1.22 1.30 1.30 1.37 1.36 1.30 1.24 1.19 1.11 1.06 1.12 1.15 1.11 1.07 1.01 1.02
0.29 0.31 0.20 0.29 0.30 0.30 0.25 0.24 0.19 0.21 0.21 0.20 0.20 0.21 0.25 0.26 0.30 0.29 0.31 0.25 0.22 0.18 0.17 0.17 0.17 0.29 0.39 0.50 0.49 0.51 0.56 0.58 0.61 0.60 0.66 0.68 0.73 0.80 0.84 0.82 0.81 0.83 0.85 0.89 0.94 0.96 0.99 1.00 1.02 1.06 1.07 1.09 1.11 1.14 1.13 1.11 1.11 1.13 1.19 1.17 1.17 1.14 1.11 1.11 1.14 1.16 1.16 1.18 1.13 1.06 1.12 1.21 1.29 1.39 1.32 1.27 1.20 1.13 1.10 1.10 1.16 1.17 1.11 1.04 1.02 1.01
0.26 0.30 0.21 0.27 0.28 0.25 0.26 0.29 0.24 0.23 0.24 0.23 0.20 0.19 0.20 0.22 0.22 0.20 0.20 0.27 0.26 0.24 0.22 0.21 0.20 0.31 0.44 0.56 0.64 0.59 0.60 0.62 0.67 0.71 0.70 0.73 0.76 0.82 0.82 0.81 0.85 0.88 0.90 0.92 0.95 0.96 0.94 0.97 0.98 1.03 1.06 1.10 1.10 1.13 1.13 1.15 1.17 1.18 1.18 1.18 1.13 1.21 1.14 1.14 1.16 1.15 1.14 1.10 1.07 1.05 1.10 1.24 1.35 1.36 1.29 1.22 1.16 1.10 1.14 1.14 1.17 1.16 1.10 1.05 1.04 0.99
0.34 0.33 0.29 0.23 0.29 0.29 0.33 0.34 0.31 0.29 0.31 0.29 0.26 0.22 0.22 0.21 0.23 0.23 0.20 0.23 0.26 0.26 0.26 0.25 0.24 0.30 0.52 0.55 0.61 0.62 0.63 0.66 0.69 0.73 0.72 0.76 0.79 0.80 0.80 0.83 0.88 0.91 0.91 0.91 0.93 0.94 0.95 0.98 1.01 1.05 1.07 1.05 1.06 1.10 1.11 1.17 1.22 1.23 1.24 1.23 1.19 1.21 1.19 1.19 1.18 1.14 1.15 1.11 1.08 1.07 1.14 1.23 1.24 1.29 1.20 1.13 1.10 1.11 1.12 1.16 1.20 1.17 1.10 1.07 1.01 1.02
0.42 0.33 0.31 0.30 0.32 0.34 0.35 0.42 0.41 0.37 0.34 0.31 0.30 0.30 0.28 0.23 0.24 0.23 0.25 0.33 0.28 0.27 0.23 0.23 0.20 0.32 0.46 0.51 0.60 0.65 0.67 0.71 0.73 0.75 0.74 0.77 0.79 0.78 0.76 0.79 0.83 0.86 0.89 0.91 0.93 0.94 0.96 0.97 1.00 1.05 1.02 1.02 1.02 1.01 1.10 1.14 1.16 1.21 1.24 1.23 1.25 1.23 1.22 1.23 1.24 1.20 1.19 1.15 1.14 1.13 1.20 1.20 1.21 1.20 1.16 1.08 1.10 1.11 1.12 1.20 1.20 1.18 1.12 1.08 1.05 1.02
0.33 0.34 0.29 0.27 0.26 0.28 0.32 0.37 0.36 0.37 0.32 0.28 0.28 0.30 0.30 0.32 0.34 0.33 0.31 0.37 0.30 0.26 0.26 0.29 0.24 0.32 0.51 0.49 0.58 0.64 0.59 0.62 0.66 0.68 0.71 0.69 0.72 0.75 0.77 0.76 0.78 0.80 0.83 0.86 0.88 0.89 0.91 0.93 0.95 1.00 1.03 1.01 1.00 1.00 1.10 1.14 1.14 1.21 1.23 1.30 1.28 1.28 1.26 1.33 1.34 1.27 1.21 1.18 1.18 1.23 1.20 1.22 1.21 1.18 1.13 1.09 1.11 1.14 1.20 1.22 1.20 1.18 1.14 1.08 1.06 1.05
0.42 0.40 0.34 0.23 0.21 0.20 0.20 0.22 0.26 0.29 0.31 0.31 0.30 0.36 0.38 0.33 0.33 0.31 0.26 0.29 0.26 0.26 0.26 0.25 0.25 0.42 0.56 0.54 0.56 0.61 0.61 0.60 0.63 0.64 0.68 0.70 0.69 0.72 0.75 0.75 0.76 0.78 0.78 0.80 0.83 0.84 0.84 0.87 0.93 0.97 1.01 1.03 1.03 1.08 1.11 1.16 1.16 1.19 1.22 1.26 1.35 1.35 1.30 1.33 1.30 1.22 1.21 1.20 1.20 1.23 1.21 1.19 1.25 1.22 1.15 1.13 1.17 1.17 1.20 1.22 1.20 1.19 1.16 1.07 1.06 1.03
0.42 0.42 0.39 0.36 0.31 0.28 0.31 0.34 0.45 0.47 0.40 0.31 0.33 0.38 0.41 0.40 0.39 0.39 0.37 0.28 0.22 0.24 0.24 0.29 0.37 0.40 0.48 0.53 0.54 0.60 0.59 0.57 0.58 0.61 0.62 0.66 0.69 0.71 0.73 0.75 0.75 0.77 0.78 0.79 0.79 0.80 0.82 0.85 0.88 0.93 0.96 1.00 1.07 1.12 1.11 1.18 1.19 1.18 1.15 1.24 1.35 1.33 1.32 1.30 1.24 1.18 1.19 1.22 1.21 1.22 1.19 1.17 1.26 1.23 1.20 1.17 1.20 1.22 1.21 1.20 1.20 1.18 1.11 1.08 1.03 0.89
0.42 0.37 0.38 0.37 0.38 0.41 0.42 0.42 0.43 0.44 0.39 0.36 0.40 0.40 0.45 0.45 0.43 0.34 0.28 0.28 0.38 0.28 0.26 0.39 0.39 0.45 0.50 0.53 0.56 0.56 0.56 0.57 0.60 0.62 0.65 0.68 0.69 0.69 0.72 0.74 0.75 0.75 0.77 0.77 0.78 0.80 0.81 0.85 0.88 0.91 0.95 1.00 1.05 1.13 1.15 1.21 1.22 1.22 1.21 1.17 1.25 1.31 1.24 1.25 1.20 1.17 1.14 1.14 1.14 1.19 1.20 1.26 1.24 1.23 1.21 1.18 1.16 1.19 1.19 1.19 1.19 1.15 1.10 1.06 0.94 0.88
0.38 0.32 0.36 0.40 0.38 0.41 0.42 0.41 0.42 0.42 0.43 0.48 0.49 0.50 0.48 0.43 0.42 0.40 0.41 0.45 0.40 0.31 0.26 0.41 0.41 0.36 0.48 0.53 0.54 0.54 0.56 0.54 0.57 0.60 0.65 0.69 0.69 0.70 0.71 0.71 0.71 0.72 0.74 0.75 0.76 0.79 0.80 0.81 0.86 0.88 0.93 1.02 1.06 1.07 1.10 1.13 1.21 1.22 1.24 1.25 1.25 1.22 1.23 1.22 1.23 1.17 1.12 1.11 1.13 1.17 1.16 1.13 1.13 1.15 1.18 1.20 1.15 1.13 1.13 1.12 1.13 1.12 1.05 1.03 0.97 0.95
0.36 0.38 0.44 0.42 0.38 0.41 0.40 0.39 0.43 0.42 0.46 0.46 0.47 0.45 0.45 0.43 0.41 0.41 0.42 0.42 0.41 0.40 0.43 0.47 0.47 0.41 0.44 0.49 0.56 0.59 0.61 0.60 0.61 0.64 0.66 0.67 0.66 0.68 0.68 0.70 0.70 0.71 0.71 0.72 0.75 0.77 0.79 0.79 0.82 0.87 0.92 0.96 1.05 1.05 1.06 1.10 1.17 1.18 1.19 1.20 1.22 1.22 1.24 1.24 1.20 1.26 1.18 1.14 1.18 1.21 1.20 1.14 1.17 1.11 1.06 1.12 1.09 1.08 1.08 1.08 1.07 1.03 1.00 0.96 0.91 0.88
0.39 0.34 0.40 0.39 0.39 0.37 0.40 0.41 0.42 0.43 0.47 0.46 0.45 0.44 0.42 0.44 0.43 0.42 0.42 0.41 0.45 0.44 0.45 0.45 0.43 0.41 0.51 0.56 0.58 0.63 0.63 0.63 0.63 0.61 0.63 0.66 0.66 0.66 0.67 0.69 0.70 0.70 0.70 0.72 0.73 0.75 0.78 0.80 0.82 0.87 0.92 0.95 1.00 1.05 1.06 1.10 1.16 1.16 1.17 1.18 1.22 1.25 1.24 1.25 1.21 1.17 1.20 1.18 1.21 1.26 1.22 1.23 1.26 1.21 1.17 1.16 1.14 1.13 1.10 1.09 1.06 0.98 0.93 0.96 0.98 0.96
0.36 0.35 0.43 0.43 0.36 0.36 0.41 0.38 0.38 0.41 0.45 0.44 0.43 0.42 0.41 0.40 0.38 0.40 0.38 0.43 0.41 0.41 0.43 0.43 0.39 0.39 0.51 0.58 0.59 0.60 0.59 0.58 0.57 0.59 0.61 0.63 0.65 0.65 0.67 0.69 0.69 0.69 0.70 0.70 0.72 0.74 0.76 0.79 0.81 0.85 0.90 0.96 1.00 1.03 1.06 1.08 1.14 1.17 1.14 1.17 1.12 1.15 1.17 1.19 1.18 1.16 1.16 1.17 1.18 1.19 1.16 1.20 1.23 1.20 1.18 1.18 1.16 1.15 1.17 1.16 1.12 1.04 1.00 0.97 0.92 0.93
0.36 0.35 0.34 0.36 0.31 0.33 0.42 0.41 0.38 0.40 0.41 0.35 0.36 0.41 0.44 0.44 0.44 0.47 0.47 0.46 0.45 0.47 0.40 0.35 0.37 0.49 0.53 0.58 0.54 0.55 0.56 0.57 0.58 0.59 0.59 0.63 0.66 0.67 0.67 0.68 0.68 0.69 0.69 0.70 0.71 0.72 0.75 0.78 0.82 0.85 0.90 0.95 0.98 1.01 1.07 1.09 1.10 1.14 1.17 1.18 1.14 1.12 1.10 1.10 1.15 1.18 1.15 1.14 1.19 1.17 1.19 1.20 1.19 1.16 1.17 1.18 1.17 1.17 1.16 1.13 1.06 0.97 0.94 0.93 0.97 1.01
0.37 0.37 0.35 0.43 0.31 0.33 0.44 0.43 0.41 0.34 0.25 0.28 0.44 0.49 0.48 0.43 0.44 0.41 0.41 0.44 0.47 0.49 0.46 0.50 0.51 0.54 0.54 0.53 0.52 0.53 0.55 0.56 0.57 0.61 0.66 0.66 0.67 0.67 0.67 0.67 0.67 0.69 0.71 0.71 0.72 0.72 0.75 0.79 0.82 0.86 0.90 0.95 0.99 1.03 1.08 1.11 1.11 1.13 1.17 1.18 1.16 1.11 1.09 1.05 1.05 1.09 1.13 1.17 1.18 1.19 1.21 1.20 1.17 1.13 1.13 1.15 1.14 1.11 1.10 1.04 1.03 1.04 1.08 1.11 1.12 1.11
0.36 0.37 0.35 0.41 0.35 0.31 0.40 0.42 0.33 0.25 0.27 0.42 0.51 0.52 0.53 0.52 0.50 0.46 0.46 0.48 0.50 0.52 0.52 0.51 0.51 0.52 0.53 0.54 0.55 0.56 0.58 0.61 0.62 0.63 0.65 0.69 0.69 0.68 0.66 0.66 0.67 0.68 0.69 0.70 0.71 0.73 0.75 0.78 0.80 0.84 0.88 0.93 0.98 1.02 1.04 1.06 1.08 1.10 1.13 1.13 1.12 1.11 1.08 1.07 1.06 1.05 1.07 1.08 1.12 1.15 1.14 1.14 1.13 1.11 1.10 1.12 1.13 1.11 1.09 1.07 1.09 1.10 1.14 1.15 1.14 1.12
0.35 0.35 0.38 0.37 0.41 0.39 0.34 0.35 0.25 0.26 0.41 0.49 0.50 0.52 0.56 0.57 0.53 0.49 0.46 0.49 0.52 0.53 0.53 0.51 0.52 0.53 0.54 0.55 0.57 0.59 0.60 0.62 0.64 0.65 0.67 0.69 0.70 0.68 0.67 0.66 0.68 0.69 0.70 0.71 0.70 0.72 0.74 0.77 0.79 0.83 0.86 0.92 0.96 1.00 1.03 1.02 1.05 1.06 1.04 1.07 1.09 1.10 1.09 1.07 1.06 1.03 1.04 1.05 1.05 1.05 1.06 1.08 1.07 1.09 1.09 1.09 1.09 1.07 1.06 1.07 1.07 1.07 1.11 1.11 1.08 1.06
0.41 0.40 0.38 0.34 0.41 0.27 0.30 0.32 0.29 0.39 0.37 0.41 0.41 0.44 0.49 0.45 0.48 0.45 0.38 0.44 0.53 0.56 0.56 0.54 0.56 0.56 0.57 0.58 0.59 0.60 0.61 0.61 0.58 0.59 0.67 0.68 0.69 0.70 0.68 0.68 0.69 0.70 0.72 0.72 0.72 0.73 0.76 0.79 0.81 0.83 0.86 0.92 0.96 0.96 0.98 1.00 1.02 1.01 1.02 1.03 1.05 1.07 1.06 1.05 1.04 1.03 1.04 1.02 1.02 1.03 1.05 1.06 1.06 1.06 1.07 1.08 1.08 1.06 1.06 1.05 1.05 1.06 1.09 1.07 1.05 1.02
0.42 0.35 0.41 0.32 0.34 0.36 0.32 0.28 0.28 0.27 0.24 0.32 0.44 0.51 0.56 0.56 0.57 0.56 0.48 0.43 0.55 0.57 0.60 0.57 0.56 0.59 0.59 0.60 0.60 0.60 0.60 0.53 0.48 0.51 0.61 0.66 0.68 0.68 0.69 0.69 0.70 0.71 0.72 0.72 0.73 0.74 0.75 0.76 0.79 0.82 0.85 0.87 0.91 0.95 0.96 0.98 0.98 0.97 0.97 0.98 1.00 1.02 1.02 1.01 1.00 1.01 1.02 1.01 1.03 1.04 1.05 1.07 1.08 1.06 1.07 1.06 1.06 1.06 1.07 1.06 1.07 1.08 1.08 1.04 1.03 1.01
0.40 0.43 0.45 0.34 0.32 0.31 0.32 0.26 0.26 0.25 0.27 0.40 0.43 0.49 0.54 0.57 0.57 0.58 0.46 0.37 0.52 0.57 0.59 0.59 0.58 0.59 0.60 0.60 0.60 0.61 0.54 0.44 0.44 0.51 0.60 0.64 0.66 0.67 0.64 0.65 0.66 0.68 0.69 0.69 0.70 0.71 0.73 0.73 0.75 0.76 0.79 0.84 0.86 0.91 0.94 0.95 0.94 0.92 0.94 0.95 0.96 0.97 0.97 0.98 0.99 1.00 1.01 1.03 1.05 1.05 1.04 1.04 1.05 1.05 1.04 1.03 1.05 1.05 1.03 1.03 1.03 1.02 1.02 0.99 0.98 0.97
0.32 0.36 0.40 0.34 0.31 0.33 0.32 0.30 0.26 0.30 0.29 0.40 0.46 0.51 0.55 0.58 0.58 0.50 0.30 0.31 0.50 0.57 0.59 0.59 0.57 0.59 0.60 0.61 0.62 0.59 0.52 0.44 0.46 0.53 0.62 0.65 0.67 0.68 0.66 0.66 0.68 0.70 0.70 0.72 0.72 0.72 0.72 0.72 0.72 0.73 0.74 0.75 0.79 0.84 0.86 0.86 0.86 0.88 0.89 0.90 0.92 0.92 0.92 0.93 0.95 0.97 0.98 0.99 1.00 1.01 1.01 1.00 0.98 0.99 0.99 0.99 0.99 0.99 0.98 0.97 0.97 0.96 0.95 0.93 0.92 0.94
0.28 0.35 0.36 0.32 0.34 0.34 0.30 0.30 0.31 0.32 0.42 0.47 0.48 0.52 0.55 0.58 0.51 0.33 0.26 0.38 0.54 0.57 0.60 0.60 0.60 0.61 0.61 0.61 0.62 0.55 0.58 0.60 0.61 0.65 0.67 0.68 0.68 0.68 0.70 0.71 0.71 0.72 0.71 0.72 0.73 0.75 0.74 0.73 0.72 0.71 0.73 0.75 0.74 0.75 0.77 0.77 0.78 0.80 0.82 0.86 0.88 0.87 0.87 0.89 0.91 0.92 0.93 0.94 0.94 0.95 0.95 0.96 0.95 0.94 0.93 0.94 0.94 0.94 0.94 0.94 0.92 0.90 0.88 0.88 0.89 0.86
0.28 0.36 0.37 0.41 0.34 0.30 0.30 0.26 0.27 0.32 0.44 0.49 0.52 0.53 0.56 0.47 0.30 0.29 0.45 0.58 0.58 0.58 0.61 0.61 0.60 0.62 0.63 0.61 0.60 0.60 0.62 0.66 0.67 0.68 0.68 0.69 0.68 0.69 0.70 0.70 0.71 0.72 0.73 0.74 0.74 0.75 0.75 0.75 0.75 0.74 0.74 0.75 0.75 0.75 0.76 0.74 0.71 0.72 0.74 0.74 0.76 0.80 0.83 0.82 0.82 0.83 0.82 0.80 0.81 0.82 0.83 0.83 0.83 0.83 0.83 0.83 0.81 0.78 0.76 0.76 0.77 0.76 0.75 0.73 0.73 0.71
0.34 0.34 0.32 0.32 0.34 0.33 0.31 0.27 0.24 0.21 0.39 0.52 0.51 0.50 0.51 0.38 0.40 0.52 0.56 0.58 0.61 0.60 0.60 0.61 0.61 0.61 0.62 0.59 0.61 0.62 0.63 0.63 0.64 0.65 0.67 0.68 0.67 0.68 0.68 0.69 0.69 0.69 0.69 0.70 0.71 0.73 0.73 0.72 0.73 0.74 0.75 0.78 0.78 0.77 0.77 0.75 0.73 0.73 0.72 0.70 0.72 0.74 0.75 0.76 0.76 0.75 0.75 0.75 0.74 0.73 0.73 0.73 0.74 0.75 0.76 0.75 0.75 0.75 0.74 0.73 0.71 0.69 0.70 0.69 0.66 0.63
0.42 0.35 0.32 0.35 0.37 0.27 0.26 0.23 0.24 0.35 0.45 0.53 0.49 0.38 0.49 0.51 0.57 0.59 0.58 0.54 0.59 0.60 0.59 0.59 0.60 0.61 0.62 0.60 0.59 0.60 0.61 0.62 0.63 0.64 0.65 0.66 0.67 0.67 0.68 0.68 0.69 0.69 0.69 0.70 0.71 0.71 0.71 0.71 0.72 0.73 0.75 0.77 0.79 0.80 0.78 0.76 0.73 0.73 0.73 0.73 0.77 0.74 0.73 0.73 0.73 0.72 0.72 0.71 0.71 0.70 0.69 0.69 0.69 0.72 0.73 0.73 0.73 0.72 0.70 0.70 0.68 0.66 0.66 0.65 0.66 0.65
0.41 0.37 0.40 0.32 0.39 0.33 0.30 0.34 0.42 0.48 0.49 0.53 0.53 0.51 0.54 0.59 0.61 0.61 0.60 0.58 0.57 0.58 0.61 0.58 0.58 0.61 0.61 0.61 0.60 0.60 0.58 0.60 0.61 0.63 0.62 0.63 0.64 0.65 0.65 0.66 0.67 0.67 0.67 0.67 0.67 0.69 0.69 0.68 0.68 0.70 0.72 0.75 0.76 0.79 0.80 0.80 0.76 0.75 0.75 0.76 0.78 0.77 0.75 0.74 0.73 0.71 0.70 0.70 0.71 0.72 0.72 0.70 0.70 0.70 0.70 0.69 0.70 0.68 0.67 0.64 0.65 0.62 0.61 0.61 0.58 0.58
0.42 0.42 0.43 0.38 0.35 0.42 0.44 0.45 0.46 0.46 0.48 0.49 0.53 0.55 0.55 0.57 0.60 0.60 0.58 0.56 0.58 0.59 0.60 0.58 0.59 0.60 0.61 0.61 0.58 0.58 0.57 0.56 0.57 0.58 0.59 0.61 0.62 0.63 0.65 0.66 0.66 0.66 0.66 0.66 0.66 0.67 0.67 0.67 0.66 0.67 0.67 0.70 0.73 0.74 0.77 0.78 0.78 0.75 0.76 0.79 0.79 0.80 0.80 0.79 0.77 0.75 0.73 0.72 0.69 0.68 0.69 0.70 0.70 0.70 0.70 0.69 0.68 0.67 0.66 0.64 0.62 0.61 0.61 0.61 0.59 0.58
0.32 0.34 0.31 0.28 0.31 0.27 0.23 0.37 0.36 0.36 0.40 0.41 0.43 0.48 0.51 0.53 0.54 0.57 0.56 0.56 0.57 0.59 0.60 0.61 0.60 0.59 0.59 0.59 0.56 0.54 0.54 0.55 0.55 0.57 0.57 0.58 0.58 0.60 0.61 0.62 0.63 0.64 0.63 0.64 0.66 0.67 0.66 0.65 0.64 0.64 0.64 0.65 0.69 0.71 0.72 0.73 0.74 0.75 0.76 0.77 0.78 0.78 0.78 0.78 0.78 0.77 0.76 0.75 0.74 0.73 0.71 0.69 0.67 0.67 0.67 0.68 0.68 0.66 0.65 0.67 0.67 0.64 0.62 0.63 0.63 0.61
0.22 0.30 0.24 0.26 0.25 0.22 0.24 0.30 0.31 0.34 0.34 0.35 0.37 0.37 0.38 0.41 0.44 0.48 0.50 0.51 0.53 0.55 0.55 0.56 0.58 0.57 0.60 0.58 0.58 0.57 0.56 0.58 0.56 0.54 0.55 0.56 0.56 0.58 0.59 0.60 0.61 0.61 0.63 0.64 0.65 0.66 0.66 0.65 0.64 0.64 0.64 0.63 0.65 0.67 0.68 0.70 0.71 0.72 0.72 0.72 0.73 0.73 0.73 0.72 0.72 0.72 0.73 0.74 0.73 0.72 0.72 0.71 0.71 0.70 0.70 0.68 0.66 0.65 0.65 0.65 0.66 0.64 0.57 0.54 0.53 0.54
0.25 0.26 0.19 0.23 0.22 0.26 0.28 0.28 0.29 0.30 0.29 0.30 0.31 0.34 0.37 0.39 0.39 0.41 0.44 0.45 0.46 0.46 0.49 0.52 0.54 0.54 0.56 0.56 0.58 0.57 0.56 0.56 0.57 0.58 0.58 0.57 0.58 0.59 0.59 0.59 0.59 0.59 0.61 0.61 0.63 0.64 0.63 0.64 0.64 0.64 0.64 0.64 0.65 0.65 0.66 0.67 0.68 0.70 0.70 0.70 0.70 0.69 0.67 0.66 0.67 0.67 0.67 0.68 0.69 0.67 0.67 0.67 0.67 0.66 0.66 0.67 0.64 0.60 0.59 0.56 0.55 0.56 0.56 0.54 0.53 0.50
0.25 0.22 0.26 0.25 0.21 0.22 0.24 0.28 0.34 0.24 0.20 0.26 0.30 0.30 0.31 0.32 0.33 0.34 0.36 0.37 0.40 0.42 0.44 0.45 0.48 0.52 0.54 0.55 0.55 0.56 0.54 0.54 0.55 0.55 0.53 0.53 0.56 0.58 0.59 0.60 0.61 0.61 0.61 0.61 0.64 0.64 0.65 0.65 0.65 0.64 0.64 0.64 0.64 0.64 0.64 0.64 0.64 0.66 0.66 0.67 0.67 0.67 0.64 0.63 0.62 0.61 0.60 0.60 0.61 0.62 0.62 0.62 0.61 0.62 0.61 0.61 0.61 0.60 0.56 0.57 0.56 0.53 0.51 0.51 0.51 0.51
0.27 0.29 0.26 0.19 0.19 0.17 0.26 0.31 0.31 0.28 0.28 0.30 0.34 0.37 0.37 0.37 0.36 0.33 0.31 0.33 0.35 0.35 0.37 0.39 0.40 0.42 0.44 0.48 0.53 0.52 0.53 0.53 0.51 0.52 0.50 0.50 0.50 0.51 0.52 0.54 0.58 0.59 0.59 0.59 0.59 0.60 0.60 0.60 0.61 0.62 0.62 0.62 0.62 0.61 0.61 0.61 0.62 0.61 0.61 0.62 0.62 0.61 0.59 0.59 0.57 0.57 0.57 0.56 0.55 0.55 0.57 0.57 0.56 0.57 0.56 0.55 0.56 0.56 0.54 0.53 0.53 0.51 0.51 0.49 0.48 0.48
Wind_Speed
16 16 16 17 17 17 19 20 20 20 17 16 16 15 16 17 16 17 15 14 15 17 17 18 19 20 20 21 20 19 18 19 21 22 23 22 22 22 22 23 22 21 21 20 21 20 20 20 19 19 19 19 19 18 19 19 20 20 20 21 21 21 21 20 21 20 19 19 18 17 17 17 17 16 15 15 15 15 15 15 15 14 14 14 14 13
16 17 17 17 18 18 18 18 20 21 18 17 18 17 17 18 17 16 16 16 16 17 18 19 20 21 21 21 21 20 20 20 20 22 23 24 24 22 23 25 23 22 22 21 21 22 21 21 21 21 20 20 20 20 20 20 21 21 21 21 21 21 21 21 20 19 19 18 18 17 16 17 16 16 16 16 16 15 16 16 15 15 14 14 14 13
16 18 18 18 17 17 16 16 18 20 19 18 19 19 19 18 17 15 14 15 17 17 18 19 20 20 19 20 21 21 22 21 21 22 23 24 25 23 24 24 23 22 22 22 23 23 22 22 23 22 21 21 21 21 21 21 22 22 23 23 22 22 21 20 20 19 18 17 17 16 16 16 16 16 16 16 16 16 16 17 16 15 14 14 13 13
16 17 19 19 18 17 16 16 17 17 18 19 19 19 20 19 19 18 15 15 17 17 18 19 19 20 20 20 21 22 23 22 22 22 23 24 25 25 25 23 22 23 23 23 25 24 23 24 24 23 22 22 21 21 22 22 22 23 24 24 24 22 21 20 20 20 19 18 17 16 15 15 15 16 16 16 16 16 16 17 15 14 14 13 13 13
17 15 15 17 17 16 17 17 17 17 18 19 21 20 20 20 21 20 17 16 17 17 19 20 20 21 22 22 22 22 23 23 23 22 22 23 24 24 25 25 24 24 23 23 24 24 24 25 25 24 23 23 23 22 21 22 23 24 24 24 23 23 22 22 22 21 20 19 18 17 16 16 16 17 17 16 17 16 16 17 15 13 13 13 13 13
19 16 13 15 16 17 18 18 18 18 17 18 20 22 22 21 22 20 18 18 18 18 18 19 20 19 20 22 22 21 21 22 22 22 22 22 23 23 24 25 25 24 23 23 24 24 24 25 26 25 24 25 24 23 22 22 24 25 25 24 23 23 23 22 23 22 21 20 19 18 18 17 17 18 17 17 17 17 17 17 15 13 13 13 13 13
18 17 15 16 17 17 18 18 18 18 17 17 17 19 22 22 22 22 20 20 19 18 16 15 17 17 17 18 18 18 19 20 19 20 21 21 21 22 23 24 25 25 24 23 23 24 25 26 26 26 25 25 25 24 24 24 26 26 25 24 23 23 23 21 20 21 20 20 19 18 18 18 17 18 18 17 17 17 17 17 15 14 13 13 13 13
18 18 15 16 17 17 18 17 18 18 17 16 15 16 17 19 20 21 21 21 19 19 17 15 17 17 17 17 16 16 17 18 18 18 19 19 19 20 21 22 23 25 25 24 24 24 26 27 26 26 26 25 26 26 26 26 26 25 24 23 22 22 21 20 19 19 19 19 19 19 18 18 17 17 17 17 17 17 18 17 15 14 13 13 13 13
18 20 17 16 17 16 17 17 17 17 18 16 15 15 15 17 18 19 19 19 19 19 19 18 17 17 18 17 16 17 17 17 18 17 17 17 17 18 19 21 22 23 24 24 24 24 26 27 26 25 25 25 26 26 26 27 26 24 23 23 22 20 19 19 19 19 19 18 18 18 18 18 18 17 16 16 16 17 17 17 15 14 13 12 12 12
15 19 18 17 17 16 16 16 16 16 17 17 16 15 16 17 17 17 18 18 18 19 19 18 17 16 16 15 15 16 16 17 16 15 15 15 16 17 18 20 21 22 23 23 23 24 25 25 25 25 25 26 25 24 25 26 25 22 21 22 22 21 20 20 20 19 18 17 17 17 18 18 18 17 17 17 17 17 17 16 15 14 13 12 12 12
15 14 15 16 16 16 16 17 17 17 17 16 15 15 16 16 17 17 17 17 17 18 18 19 19 18 16 14 12 12 13 13 13 13 14 15 16 17 17 19 20 22 23 23 23 24 24 24 23 23 24 24 23 22 23 24 23 22 21 21 22 21 19 18 19 19 17 15 16 17 18 19 18 18 17 17 17 17 17 16 15 14 13 12 12 12
18 15 15 17 18 17 16 16 17 18 18 17 16 15 15 15 16 16 15 16 16 16 16 17 19 19 16 13 10 9 11 12 12 13 13 15 15 15 16 17 18 19 20 21 23 22 22 22 22 22 22 22 21 22 22 22 21 21 20 21 21 21 19 15 14 17 17 15 15 17 17 19 19 18 18 17 17 17 17 17 16 14 12 12 12 11
20 18 16 16 17 17 16 15 15 16 18 18 16 15 15 14 13 14 14 14 15 16 15 14 14 16 15 14 12 10 10 10 12 13 13 14 14 14 15 16 16 16 16 19 21 20 20 21 22 21 22 21 21 22 22 21 20 20 19 20 21 22 21 18 15 14 15 16 16 17 17 18 19 19 18 18 18 18 18 18 16 14 13 12 12 11
18 19 18 17 16 17 17 15 14 14 16 18 17 16 16 14 13 13 13 13 14 15 15 13 12 13 13 12 11 11 10 10 12 13 13 13 13 13 13 14 13 14 14 16 17 18 19 20 21 21 21 21 21 21 22 22 21 20 20 21 22 21 21 22 18 15 15 15 16 17 17 18 20 19 18 18 18 18 19 18 16 13 12 12 12 11
17 16 18 18 15 16 18 17 15 14 15 17 17 17 16 15 13 12 11 11 12 12 13 13 13 13 12 10 10 10 11 11 12 12 12 13 12 12 13 12 12 13 13 14 14 16 18 19 19 19 20 20 21 21 21 21 21 21 20 21 23 22 21 21 20 19 18 16 16 17 17 18 19 19 19 18 18 19 20 18 15 14 13 12 11 11
18 16 15 17 16 16 17 18 18 16 14 15 16 17 17 16 14 13 11 10 10 10 11 12 12 12 11 10 10 11 11 11 11 11 12 12 12 11 11 10 10 11 12 12 12 12 14 16 16 17 19 20 21 21 21 21 21 21 21 21 23 22 21 21 21 21 20 18 17 17 18 18 19 20 20 20 20 21 20 18 15 14 13 12 11 10
16 15 13 16 17 17 17 17 19 18 14 13 15 17 17 15 15 14 14 12 12 12 11 11 12 12 11 10 10 10 10 9 10 10 10 11 11 10 9 9 8 9 10 11 10 11 12 13 14 15 17 19 20 20 21 21 21 21 21 21 22 22 21 21 21 20 19 18 17 18 19 20 20 21 21 21 21 21 20 18 16 14 14 13 12 11
15 14 13 16 17 17 17 17 19 20 17 14 14 15 15 15 15 14 13 12 12 13 13 13 14 13 12 10 9 9 9 9 8 9 10 11 10 9 8 8 7 7 9 10 11 12 13 13 14 15 16 17 19 20 21 21 22 22 23 22 22 22 21 21 20 19 19 18 17 17 19 20 20 21 23 23 21 20 19 18 16 15 14 13 12 11
14 14 14 16 17 16 16 17 17 19 21 18 14 13 13 14 14 14 14 13 13 13 13 14 15 13 10 9 9 9 9 8 8 9 10 10 10 10 9 8 7 7 9 10 11 12 12 13 14 15 16 17 18 19 21 21 22 22 22 22 21 21 21 20 20 19 19 18 17 17 18 20 20 21 24 24 21 20 19 18 17 15 14 13 12 11
14 14 14 15 16 15 15 16 17 17 19 20 17 15 14 13 13 13 14 13 13 13 12 13 13 10 7 7 8 7 7 7 8 8 9 9 9 9 9 8 7 7 8 9 10 11 12 12 14 14 15 16 17 19 20 21 21 21 21 21 20 20 20 20 20 19 19 17 17 17 18 19 20 22 24 23 21 21 20 19 17 16 14 14 13 12
14 14 14 14 15 15 15 15 17 17 17 19 19 17 16 15 13 13 13 14 14 13 12 12 11 8 7 7 6 5 5 6 6 7 8 8 8 7 7 7 7 7 7 8 9 10 10 11 12 13 14 15 16 17 18 19 19 19 19 19 19 19 19 19 19 19 18 17 17 17 18 19 21 22 22 22 21 21 20 19 17 16 15 14 13 13
14 15 16 15 15 16 15 16 18 18 16 18 19 19 18 17 15 14 14 14 14 14 13 12 10 8 7 6 5 4 4 5 5 6 7 8 7 6 5 5 6 6 7 7 8 9 10 11 12 13 13 14 15 16 17 18 18 19 19 19 19 20 19 19 19 19 18 17 16 17 18 19 21 21 21 21 22 21 21 19 17 16 15 14 13 13
14 15 16 17 16 16 14 13 15 16 15 16 17 17 18 18 17 16 14 13 15 15 13 13 11 9 7 7 5 4 3 4 4 5 6 7 6 5 5 5 6 7 7 8 9 10 10 11 12 13 14 14 15 17 17 18 18 18 19 20 20 20 19 19 19 18 17 17 17 18 19 20 21 21 20 21 22 22 21 19 17 16 15 14 13 13
15 15 16 16 17 17 15 13 13 15 16 16 16 16 17 18 17 17 15 13 14 14 11 11 11 10 8 8 7 5 3 3 3 3 4 5 5 5 5 6 7 8 8 9 10 11 11 12 13 14 15 15 16 17 18 18 17 18 19 19 19 19 20 19 18 17 16 16 17 19 20 21 21 20 20 21 22 22 21 19 17 16 15 14 13 12
15 16 16 16 15 17 17 15 15 16 17 17 17 16 16 17 16 16 15 14 14 13 12 11 10 8 8 8 7 5 4 4 4 4 4 5 5 5 6 7 7 8 9 10 10 11 11 12 13 14 15 15 16 17 16 16 16 17 18 18 18 18 19 18 17 17 16 16 17 19 21 22 21 21 22 22 22 22 20 19 17 16 15 14 13 12
15 15 16 17 16 15 15 14 14 15 15 17 17 16 15 18 18 16 16 16 15 14 15 13 10 8 7 7 6 5 5 5 4 4 4 5 6 6 6 6 7 8 9 10 11 11 12 13 13 14 15 15 16 17 16 14 14 15 16 17 17 17 18 17 17 16 16 17 18 19 21 21 21 22 23 22 21 21 20 19 17 16 15 14 13 13
16 16 17 18 16 15 14 13 13 14 14 15 16 15 15 17 17 15 16 16 15 14 14 12 9 9 8 6 6 5 5 5 5 4 4 5 6 6 6 6 7 7 8 9 11 12 12 13 14 15 16 16 16 16 14 13 13 13 13 14 16 17 17 16 16 17 17 18 18 19 20 21 22 22 22 21 21 20 20 19 17 16 15 14 14 13
16 17 18 19 18 17 15 13 13 13 13 14 15 15 14 13 13 15 16 15 14 14 13 10 9 9 7 5 5 5 5 6 5 5 5 5 6 6 5 6 6 6 7 7 9 10 11 12 13 14 16 17 17 15 13 13 13 13 12 13 14 16 16 15 16 17 18 18 18 19 20 20 21 22 21 20 20 19 18 18 17 16 15 14 14 13
15 16 17 18 19 19 18 16 15 13 12 13 14 12 11 10 10 12 14 13 12 14 12 10 10 9 7 6 6 6 6 6 6 6 6 6 6 6 5 5 6 6 6 7 7 8 9 10 11 12 14 15 16 15 13 12 13 13 13 13 13 15 15 15 15 17 18 18 18 19 19 19 20 21 20 19 19 18 17 16 16 15 15 14 13 13
15 15 15 16 18 19 19 19 18 16 15 14 12 11 10 10 10 10 11 11 11 12 11 10 9 9 9 8 7 7 7 6 5 6 5 5 6 6 6 5 5 6 6 7 8 8 9 10 10 11 11 12 13 13 13 12 12 13 13 12 12 14 15 15 15 16 17 18 18 18 18 18 18 20 20 19 18 17 16 16 15 15 14 14 13 13
15 15 13 13 16 17 16 17 18 19 17 13 11 11 11 11 11 11 10 11 11 11 12 11 10 10 11 10 8 8 8 7 6 6 6 6 7 7 6 5 6 6 6 7 8 8 9 9 9 9 10 10 10 10 11 11 11 13 13 13 12 12 14 15 15 16 16 17 18 18 18 18 18 18 18 18 17 16 15 14 14 14 14 14 13 13
15 16 14 14 15 14 14 15 16 16 16 12 10 11 11 11 11 11 10 10 11 12 12 12 11 11 11 11 9 8 8 7 7 7 7 7 7 6 6 5 6 6 6 7 8 8 8 9 9 8 8 8 8 7 9 11 11 12 13 14 13 12 13 14 14 15 15 16 17 18 19 19 19 18 17 17 16 15 14 14 14 14 14 13 14 13
14 14 14 15 15 13 13 14 14 15 15 12 9 10 12 11 11 11 11 10 11 12 12 12 12 12 12 11 10 9 8 7 7 7 7 7 6 6 6 6 6 6 7 7 7 8 8 8 8 7 6 7 6 6 8 10 11 12 13 14 14 13 13 13 13 13 13 14 16 18 19 19 19 19 18 17 16 16 15 15 14 14 13 13 14 14
13 13 12 13 14 13 12 13 15 15 15 12 9 9 11 12 11 11 11 10 11 12 12 12 12 11 12 11 10 10 8 7 7 6 6 7 7 7 6 7 7 7 7 7 7 7 7 7 7 6 5 5 5 5 7 9 10 11 12 13 14 14 14 14 14 14 13 14 15 16 17 17 18 19 18 17 17 16 16 15 15 14 14 14 14 14
14 13 10 11 13 12 11 12 14 14 13 12 9 8 10 11 11 11 11 10 10 12 12 12 11 11 11 11 10 10 9 8 6 5 6 7 8 8 7 7 7 7 7 7 7 7 6 6 6 6 5 4 5 6 7 8 9 11 12 12 13 14 14 14 14 14 15 14 14 15 15 16 17 18 18 17 17 16 16 16 15 15 14 13 13 12
14 13 10 9 10 10 10 11 11 9 8 10 9 7 7 10 11 12 12 10 10 11 12 12 12 11 11 11 11 11 10 9 7 6 6 7 7 8 7 7 8 7 7 7 6 6 6 5 5 5 5 4 4 6 7 7 8 10 11 12 14 15 15 15 14 14 14 15 15 15 15 15 16 17 17 17 16 16 15 15 15 14 14 13 12 11
15 13 12 10 9 9 8 7 8 9 6 6 7 7 6 7 9 11 12 10 10 11 12 12 13 12 12 12 12 13 13 12 9 8 8 8 7 7 7 8 8 8 7 7 6 6 5 4 4 4 5 4 4 5 6 7 8 10 11 11 12 14 15 14 13 13 14 14 14 14 15 15 16 16 16 16 16 15 14 14 14 14 13 13 12 11
15 14 12 11 10 10 8 7 9 10 7 4 6 7 7 7 8 10 11 10 9 10 11 13 14 14 14 14 14 15 16 15 12 11 11 10 8 8 8 7 7 7 7 7 6 6 6 5 4 4 4 4 4 4 6 7 7 9 11 11 11 13 14 13 13 13 13 13 13 13 13 14 14 15 15 15 15 14 14 13 13 13 13 12 12 11
15 13 12 12 11 10 10 9 7 7 6 4 5 6 7 7 8 9 10 9 8 10 11 12 13 13 14 15 15 14 15 15 15 14 13 11 10 9 9 8 7 7 6 6 6 6 6 5 5 5 4 4 3 3 4 5 5 6 8 10 11 12 12 12 12 12 12 12 12 12 12 12 12 13 13 13 13 14 14 13 13 13 13 13 12 12
14 12 12 12 10 8 8 8 5 5 5 5 6 6 6 6 8 9 9 8 8 10 10 10 11 12 13 14 14 14 14 15 15 15 14 12 11 11 10 9 8 8 7 7 7 8 7 6 6 5 5 5 4 4 4 4 3 4 5 7 9 9 9 10 10 11 11 12 12 12 12 12 12 13 13 13 13 13 14 14 14 13 13 13 13 13
12 10 10 11 9 7 7 7 5 5 5 5 7 6 5 6 8 7 7 8 9 9 9 9 10 10 10 10 11 12 12 13 13 13 13 12 12 11 11 10 9 9 9 9 9 10 9 9 8 7 7 7 6 7 7 6 4 4 5 6 7 8 8 9 10 10 11 11 11 12 12 12 12 12 13 13 13 13 13 13 13 13 13 13 13 13
11 9 9 9 8 7 7 6 6 5 4 6 7 6 5 6 7 5 6 7 7 7 7 7 8 8 7 6 8 9 10 11 11 12 11 11 11 11 10 10 9 9 9 9 9 10 10 10 9 9 9 9 9 9 9 9 7 6 6 6 7 8 9 9 9 10 10 10 11 11 11 11 11 12 13 13 13 13 13 13 13 13 14 14 14 14
9 9 8 7 5 4 5 4 5 5 3 6 5 5 4 5 6 6 6 6 5 5 5 5 6 7 6 6 7 8 8 9 9 10 10 11 11 10 10 10 9 9 9 9 9 9 9 9 9 8 9 10 11 11 11 10 10 9 8 7 8 8 9 9 9 9 9 9 10 10 10 11 11 12 13 13 13 13 14 14 14 14 15 15 15 15
6 6 7 5 4 3 3 3 3 4 3 3 2 3 3 4 6 6 6 5 5 5 5 5 5 6 7 7 8 8 8 8 8 9 9 10 10 10 10 10 10 10 10 10 9 9 8 8 8 8 8 9 11 11 11 10 10 10 9 9 9 9 9 9 9 9 9 10 10 10 10 11 11 12 13 13 14 14 14 15 15 15 15 16 16 16
7 7 7 5 4 5 5 5 4 3 1 0 1 2 2 3 3 4 4 4 4 5 5 6 6 6 7 7 8 8 8 9 9 9 10 10 10 10 11 11 11 11 11 11 10 10 9 8 8 8 8 9 10 10 10 10 10 10 10 10 11 11 10 10 10 10 10 10 11 11 11 12 12 12 13 14 14 15 15 15 15 16 16 17 17 17
9 9 8 7 8 8 7 6 5 4 3 3 2 1 1 2 3 3 3 3 4 4 5 5 6 6 7 7 8 8 8 9 9 10 10 11 11 11 11 11 12 11 11 11 12 12 11 10 10 10 9 10 10 10 11 11 10 10 10 11 11 11 12 11 11 11 11 11 12 12 12 12 13 13 14 15 15 16 16 16 16 17 17 18 18 18
9 8 7 6 6 6 5 4 4 3 3 3 2 2 1 1 2 3 3 3 4 4 4 5 5 6 6 7 8 8 9 9 10 10 10 10 11 11 12 12 12 12 11 11 12 12 12 12 11 11 11 10 11 11 11 12 11 11 10 11 11 11 12 12 12 12 13 13 13 13 13 13 14 14 15 15 16 17 17 17 17 18 18 18 19 19
7 7 7 6 6 6 5 5 4 3 2 2 1 1 1 1 1 2 3 3 4 4 4 5 5 6 6 7 8 9 9 10 10 11 11 11 11 11 11 11 11 11 11 11 11 11 11 12 11 11 11 11 11 11 12 13 13 12 12 12 12 12 12 12 13 13 13 13 14 14 14 14 15 15 15 16 16 17 17 18 18 18 18 18 19 19
6 6 6 7 6 6 5 4 3 3 2 2 2 1 2 2 2 3 3 4 4 4 4 5 5 5 6 6 7 8 9 9 10 10 11 12 12 12 12 12 12 12 11 11 11 11 11 11 12 12 12 12 12 12 13 13 13 13 13 13 13 13 12 12 12 12 13 13 14 14 15 15 15 15 15 16 16 16 16 17 17 18 18 18 18 19
5 4 4 4 4 3 2 1 0 1 1 2 2 2 3 3 3 4 4 5 5 6 6 6 6 7 7 7 7 8 8 8 9 10 10 11 12 13 13 13 14 14 13 13 13 13 12 12 12 12 12 12 13 13 13 13 13 13 13 13 13 13 13 13 13 13 13 14 14 15 15 15 15 15 15 15 15 16 16 16 16 16 17 18 17 18
5 4 3 3 3 3 2 2 2 2 2 2 3 3 4 5 5 5 6 6 7 7 8 8 9 9 10 9 10 10 10 9 9 10 10 11 12 12 13 14 14 15 15 15 14 14 14 13 13 13 13 13 13 13 13 13 13 13 13 14 14 14 14 14 14 14 14 15 15 15 15 15 15 15 15 16 16 17 17 17 16 16 17 17 18 18
Wind_Direction
232 237 237 238 240 238 237 239 240 246 256 260 259 252 248 252 252 250 250 251 259 261 257 257 256 254 252 252 252 250 245 242 240 236 235 237 238 241 241 238 236 236 237 236 236 235 230 228 229 230 231 231 230 231 230 230 228 226 226 227 226 224 221 220 219 222 224 223 225 226 225 226 226 228 231 232 234 233 230 227 222 220 220 220 222 223
233 239 241 240 242 242 241 242 242 248 258 255 252 256 256 254 255 255 251 251 259 261 259 258 256 254 253 251 251 250 247 242 241 240 238 237 239 240 240 239 238 236 237 238 237 236 234 232 231 231 232 231 231 231 230 230 228 226 226 226 226 223 221 221 220 222 224 225 227 228 227 226 225 229 232 232 233 233 232 227 219 219 219 220 222 222
237 243 245 243 244 245 245 248 245 247 252 250 249 255 257 255 254 250 248 255 261 260 259 258 257 256 254 253 251 250 249 245 242 243 241 238 239 239 238 241 239 237 238 239 238 237 235 234 232 232 232 231 232 232 231 230 230 229 228 227 227 224 222 222 223 225 227 230 230 229 228 227 226 230 233 233 233 232 231 225 218 218 219 219 221 221
241 246 245 242 243 243 244 247 247 248 249 248 248 252 253 252 252 249 250 259 260 257 260 262 261 260 259 257 254 251 249 246 243 243 243 240 239 239 240 241 237 238 242 240 238 236 234 233 232 232 232 233 233 234 232 231 231 231 230 228 227 226 225 226 228 230 232 234 234 235 234 232 231 232 233 234 234 232 229 224 220 218 218 219 220 221
245 251 245 239 239 239 242 244 245 248 248 247 247 250 252 251 252 253 253 257 258 256 258 261 263 262 258 256 254 251 248 245 243 241 242 242 240 239 240 239 237 238 240 239 237 236 234 233 231 231 231 233 234 235 233 231 232 232 229 229 228 228 228 228 229 229 232 235 236 236 236 235 233 231 233 235 233 230 226 223 222 220 218 220 221 222
245 248 243 241 240 239 243 244 242 245 249 250 247 247 251 252 254 255 255 257 260 261 258 255 259 263 257 254 252 248 244 241 240 240 241 240 240 240 239 239 239 237 237 236 235 235 234 232 231 230 230 232 234 235 234 231 231 230 230 230 229 228 228 230 230 229 230 234 235 235 234 232 231 231 233 232 228 225 223 221 220 221 221 222 222 223
242 240 240 243 244 242 244 245 242 242 248 252 249 248 249 249 252 255 255 257 258 263 263 253 257 265 262 256 251 246 244 238 235 239 241 240 240 241 240 240 239 238 237 234 233 233 233 231 231 230 229 231 233 234 233 231 229 228 229 230 230 229 229 230 232 230 229 232 233 234 233 230 230 231 229 228 227 225 222 219 219 223 223 221 221 220
237 238 241 242 243 243 243 245 241 240 245 248 250 252 249 247 250 252 252 254 255 261 260 249 255 264 264 259 252 246 244 237 235 238 238 239 241 240 241 242 240 240 239 234 230 231 232 230 230 231 230 232 234 234 234 232 229 228 229 231 234 233 230 233 237 235 231 231 232 232 231 229 229 228 226 226 229 225 221 219 220 221 220 217 217 217
233 237 241 241 241 243 243 244 241 239 242 244 249 253 251 249 251 251 250 252 254 258 256 250 251 257 261 259 253 249 242 235 238 237 230 235 241 240 243 245 243 242 239 233 229 231 233 231 230 230 230 232 233 234 234 235 233 229 229 233 238 239 236 237 238 235 231 231 232 231 229 226 224 224 224 225 225 220 218 220 218 216 215 213 213 214
236 238 240 240 241 242 242 243 241 239 239 243 250 252 249 250 251 250 251 253 253 253 254 251 249 253 259 258 255 251 241 235 239 236 227 234 242 245 249 250 248 244 239 233 230 232 233 230 229 230 231 232 233 234 235 237 237 234 233 235 240 243 242 240 237 233 231 231 232 230 227 222 221 223 224 222 220 219 221 221 215 211 210 210 212 214
242 240 241 242 241 242 243 242 241 240 239 242 248 249 247 247 246 248 249 251 252 250 249 249 249 252 257 257 256 252 241 234 235 233 232 240 245 247 250 249 247 245 239 234 232 232 231 230 230 230 231 232 232 233 234 236 238 238 238 240 241 243 243 241 237 233 232 234 233 230 226 221 221 222 222 220 219 219 221 218 212 208 208 210 212 214
236 237 243 244 241 243 245 243 241 239 238 239 242 244 244 242 241 244 244 244 248 249 248 248 247 247 249 252 252 246 237 233 234 237 240 245 247 247 247 245 247 248 240 233 233 233 231 229 228 228 229 230 231 232 232 233 236 238 240 239 237 236 238 242 242 235 236 241 237 230 225 222 221 220 220 219 218 216 215 210 207 207 208 209 210 211
236 240 243 240 237 239 241 241 239 237 236 235 234 236 239 238 236 240 240 238 242 247 249 250 246 244 245 249 246 240 238 238 242 246 247 248 249 249 249 249 251 248 236 233 235 232 228 227 225 225 227 228 230 231 231 232 235 239 240 237 232 232 236 246 255 248 240 243 237 229 226 223 221 220 219 219 217 214 209 205 204 207 207 207 208 210
236 239 238 236 234 233 235 236 233 232 231 230 228 229 232 233 234 239 241 239 241 245 242 239 242 245 247 248 243 240 246 249 248 248 248 248 248 248 251 253 248 239 232 233 233 228 227 226 224 225 227 228 230 230 231 233 236 239 239 235 231 233 237 244 253 253 247 245 237 229 229 224 220 219 219 218 217 211 204 202 204 206 206 207 208 211
235 236 231 231 230 226 229 233 232 232 230 227 227 229 231 233 234 239 242 241 244 246 235 228 236 246 246 244 243 244 248 251 250 247 244 243 243 245 248 249 243 232 229 229 227 226 227 224 222 223 225 227 229 229 231 234 236 237 237 234 232 236 241 242 246 249 248 246 238 231 230 224 220 220 218 215 213 207 202 203 205 205 205 206 207 210
237 238 229 227 230 227 227 229 232 235 234 226 225 228 231 232 234 240 248 249 250 250 239 230 235 246 247 241 241 243 244 248 248 243 239 237 238 241 242 242 238 229 224 221 220 222 222 218 218 221 223 225 227 229 233 235 235 235 236 236 236 239 243 242 243 244 241 242 238 231 228 226 222 219 216 213 209 204 203 205 205 203 203 204 205 207
236 239 229 224 228 228 228 228 227 230 233 225 223 228 230 230 233 240 248 248 246 248 248 243 242 245 246 241 243 243 239 242 244 236 233 234 232 234 235 234 233 229 224 220 219 220 218 217 219 222 224 226 228 233 235 235 234 235 237 240 238 238 240 241 242 239 236 239 236 229 227 225 221 219 215 209 205 203 203 203 203 203 203 204 205 206
235 240 230 221 225 228 229 231 228 227 229 227 226 227 227 229 233 239 243 242 240 243 247 247 246 247 247 245 250 251 242 237 237 230 227 228 226 226 226 222 221 224 222 221 223 224 223 224 225 226 228 229 232 235 236 235 236 237 240 241 239 237 237 237 237 235 236 238 235 230 226 223 222 220 211 203 201 202 203 202 201 203 205 205 206 209
233 237 229 222 228 229 225 229 230 225 224 228 231 228 226 229 230 230 234 237 240 243 245 246 247 249 254 248 241 246 247 237 232 227 222 221 221 220 219 214 213 215 218 221 223 224 223 225 227 228 230 231 232 234 235 237 239 239 240 240 238 236 234 234 235 234 235 236 234 230 225 221 220 213 202 199 202 204 203 202 201 203 205 206 209 213
228 233 230 223 226 225 221 225 228 223 220 225 230 230 229 233 232 229 230 234 238 242 243 244 243 243 254 256 242 240 246 236 227 222 217 215 216 219 220 218 217 219 221 224 224 223 223 224 226 227 229 231 232 234 236 239 240 239 238 237 235 234 234 234 234 232 232 233 230 226 221 217 213 204 200 202 204 203 203 203 202 202 204 207 212 216
225 230 229 223 221 220 221 224 225 224 220 220 225 227 226 228 232 234 234 235 242 246 243 243 245 242 245 258 252 232 230 231 223 218 216 213 211 215 222 228 231 231 229 227 227 227 227 228 229 231 232 233 234 236 238 239 240 238 236 235 235 235 234 232 231 229 228 229 227 221 215 211 207 204 203 204 203 203 204 205 203 203 206 209 212 214
224 227 228 228 225 222 226 227 226 227 224 220 223 225 224 226 229 235 236 233 235 240 242 242 244 243 239 248 250 230 228 232 219 213 213 211 209 214 223 232 238 240 238 232 231 233 234 236 236 235 235 236 238 239 238 239 240 239 237 236 236 234 231 228 226 225 226 227 225 217 211 208 206 204 203 202 202 203 204 204 203 204 206 209 211 212
225 226 228 229 226 226 233 233 226 226 228 226 225 225 225 226 229 236 240 235 233 239 249 250 242 235 233 241 248 241 234 231 217 210 206 205 210 217 225 233 237 244 245 238 236 238 239 241 241 239 240 243 244 243 242 243 243 240 237 236 234 231 226 222 221 222 225 225 220 213 209 206 203 203 203 202 201 202 202 202 203 204 206 208 210 213
224 226 228 229 229 230 235 236 230 227 228 228 227 226 226 226 231 236 236 240 246 246 248 252 248 237 232 237 240 236 232 226 213 206 203 206 215 222 231 240 243 249 252 245 242 241 241 242 242 243 246 250 250 249 249 248 245 242 239 235 231 227 222 218 218 220 221 220 216 211 207 203 201 201 201 198 198 199 200 201 203 205 206 208 211 214
225 225 226 228 230 228 228 233 233 228 227 228 227 228 231 231 234 235 231 238 249 242 233 244 253 242 232 233 232 229 230 226 215 215 217 219 229 233 238 245 248 252 254 250 246 246 246 246 244 246 251 253 253 252 251 248 244 241 238 233 228 223 218 216 216 217 216 215 212 207 201 199 200 200 197 196 197 198 199 201 203 204 206 209 212 216
228 229 227 229 232 229 227 231 231 228 228 228 226 227 235 237 237 238 234 236 245 243 238 244 254 247 234 224 217 216 221 223 224 230 230 231 241 245 244 247 251 252 252 251 251 252 253 252 250 251 253 256 259 258 251 245 242 238 235 231 226 220 216 213 213 213 211 208 205 201 196 197 199 196 195 196 197 198 200 202 203 205 207 210 214 218
232 234 233 235 237 232 228 230 231 234 236 235 232 227 228 234 237 238 237 239 244 245 241 239 241 243 238 221 216 222 219 221 233 242 242 243 249 251 249 250 250 249 251 254 256 258 258 258 257 257 257 258 261 261 253 243 237 232 228 226 220 214 210 209 208 208 205 202 201 198 194 195 196 195 194 196 197 198 200 202 204 206 208 212 217 220
237 239 238 239 238 230 227 230 232 235 240 241 241 233 226 230 235 233 235 242 245 242 241 235 223 229 241 241 244 248 234 227 234 240 242 245 250 254 254 252 253 256 259 260 262 264 264 263 262 260 260 259 259 260 257 244 233 227 221 216 210 205 204 205 204 203 201 198 195 194 193 193 194 193 193 194 196 197 200 202 204 207 210 215 219 223
236 241 241 242 240 234 232 234 232 234 238 234 235 237 234 234 235 232 235 244 246 241 241 236 219 220 241 252 249 251 248 240 238 241 245 247 252 256 255 254 259 263 267 269 270 272 273 272 271 269 266 262 257 255 255 247 234 225 220 215 208 199 195 197 196 194 193 192 192 193 194 194 193 191 191 193 196 199 202 204 206 209 214 219 223 228
235 240 243 246 245 238 234 234 231 232 236 233 234 244 245 237 234 236 241 248 248 240 235 231 225 230 243 247 244 244 246 243 241 245 250 251 256 258 255 256 260 262 269 274 275 279 281 279 281 280 272 267 260 251 247 242 231 221 218 216 209 199 193 192 191 188 187 188 190 191 192 192 191 191 193 196 199 201 204 206 208 212 217 221 225 232
233 238 243 245 243 236 229 230 230 229 230 233 241 249 249 242 239 241 247 249 245 240 234 231 233 238 241 242 243 244 243 242 240 242 245 251 259 261 256 254 258 261 270 276 278 284 284 280 282 282 273 270 267 250 237 232 224 216 214 213 210 204 198 194 192 192 191 191 191 191 191 191 191 192 194 197 199 201 204 207 209 213 219 224 229 234
229 235 236 235 238 236 227 224 227 227 226 231 248 253 248 245 243 241 242 243 242 244 242 237 238 241 239 238 241 246 247 243 241 244 248 253 260 260 254 254 261 270 277 281 285 289 288 282 281 282 276 273 269 248 231 225 219 213 212 212 211 207 201 195 192 191 192 193 195 196 195 196 196 197 198 200 202 205 209 212 214 218 223 227 231 236
226 230 229 228 232 235 231 223 220 223 227 234 253 257 247 243 243 239 237 241 244 244 241 239 241 242 238 234 235 240 244 243 245 250 251 252 254 252 251 255 264 273 277 281 285 289 291 287 283 287 288 278 267 247 229 222 216 211 211 211 209 203 198 194 190 187 187 191 195 196 197 198 200 202 203 206 210 214 216 218 221 225 228 232 238 244
221 223 225 225 226 231 236 228 219 222 230 235 248 257 247 242 242 237 236 245 248 242 238 238 240 241 240 237 233 231 235 242 247 251 250 247 245 245 249 256 262 267 271 275 281 287 291 290 287 294 295 278 262 242 223 217 214 209 209 210 207 204 203 201 198 194 191 191 193 195 197 200 204 207 210 214 216 217 220 222 224 227 232 239 245 248
214 216 219 222 223 224 230 229 224 225 229 229 237 255 250 242 240 234 231 241 248 245 241 238 239 242 241 234 227 223 225 233 241 248 250 246 242 241 247 254 257 260 265 269 276 285 291 292 292 295 289 270 252 231 217 214 214 209 207 206 204 204 204 203 201 200 199 199 201 202 203 206 209 211 214 216 217 218 220 222 224 228 233 239 242 242
213 213 212 212 213 212 216 223 223 218 216 219 230 253 252 242 241 234 229 237 249 248 243 238 237 238 233 226 223 220 219 222 230 243 248 243 240 240 244 250 253 256 261 264 270 282 291 294 294 290 280 263 238 221 215 216 214 209 207 207 206 205 203 201 201 202 203 205 209 210 211 211 211 212 214 215 217 219 220 221 225 228 230 233 236 237
213 211 209 207 211 212 209 208 208 202 201 219 237 251 252 244 243 237 231 236 247 247 243 238 235 231 227 224 223 221 222 225 231 243 247 243 240 239 241 247 250 252 256 259 266 277 284 284 280 276 271 260 235 222 219 218 214 208 205 204 204 204 202 200 201 203 204 208 212 214 215 215 214 215 216 216 217 218 220 222 226 229 229 230 232 233
213 212 212 210 214 216 202 191 203 209 212 238 250 251 252 246 242 236 229 232 247 251 247 242 237 231 226 225 225 228 233 235 235 241 247 246 244 242 241 246 249 249 253 257 263 271 277 274 265 264 262 246 232 228 220 214 210 206 203 203 201 198 198 201 205 206 208 211 213 213 212 212 211 211 212 214 215 215 217 220 223 227 228 228 229 230
211 213 214 215 223 228 216 204 206 209 213 243 257 254 252 242 233 230 226 230 252 258 250 244 240 234 226 226 230 236 240 238 235 239 243 243 241 239 239 243 246 247 251 256 259 263 267 265 259 260 257 242 230 221 206 197 193 191 194 198 199 197 198 203 207 207 205 204 202 201 201 201 203 205 208 210 211 212 216 219 221 223 227 228 229 233
208 210 216 220 224 223 209 198 196 202 220 257 268 261 252 234 227 229 228 235 256 262 253 243 236 229 226 230 237 241 241 238 234 235 238 238 236 236 236 239 244 246 250 255 255 256 256 256 257 260 260 251 232 214 204 194 186 186 188 188 186 183 185 191 193 193 193 193 194 196 199 201 205 208 210 212 213 215 219 221 223 224 227 230 233 235
202 207 213 213 209 200 189 186 192 206 233 272 274 263 249 230 228 235 238 245 256 257 247 235 228 226 230 235 236 234 233 230 227 228 232 233 234 234 233 234 239 243 248 253 254 253 252 252 257 260 256 248 233 224 225 225 217 214 209 199 191 188 190 193 193 193 194 195 198 201 205 208 210 211 212 215 217 218 220 223 225 227 229 232 235 237
197 199 196 194 197 196 189 185 189 199 246 289 277 259 250 238 233 237 242 249 256 248 235 232 231 232 236 235 224 218 219 221 221 224 227 227 227 228 230 232 237 241 246 251 252 251 250 249 252 254 250 241 234 230 231 230 226 223 217 208 206 206 205 204 201 198 198 199 202 205 209 211 213 213 215 216 218 220 223 227 230 232 234 236 239 242
190 191 182 180 190 186 171 174 193 207 262 301 275 245 250 245 232 233 239 245 253 249 239 237 237 233 228 222 216 213 215 219 221 222 224 224 223 225 229 232 237 242 245 249 252 252 251 249 247 247 243 237 232 229 228 226 226 227 224 219 217 214 211 209 207 205 204 205 207 210 212 214 216 217 218 220 221 223 227 230 233 236 238 240 243 246
166 179 177 184 203 194 166 162 192 209 252 302 258 217 228 230 225 231 235 234 242 248 240 233 231 230 225 219 217 216 216 218 219 219 221 223 224 227 232 235 238 241 243 245 247 248 248 246 244 243 239 235 230 229 229 228 226 225 225 225 223 218 215 216 217 217 217 217 217 218 219 220 222 224 225 226 227 229 232 235 238 242 244 246 248 249
122 129 136 133 128 129 131 137 148 158 160 74 180 199 213 216 219 225 222 221 233 239 232 227 227 230 230 223 217 216 218 219 221 222 225 228 230 232 236 239 241 243 244 245 244 243 244 245 245 244 241 236 230 227 229 231 230 226 225 227 228 226 225 226 226 227 228 229 228 227 227 226 228 231 233 234 234 235 238 241 244 247 249 250 252 253
119 118 118 116 116 112 108 113 117 106 95 90 91 140 214 230 234 232 225 226 230 229 226 225 226 230 231 225 220 219 220 223 226 229 231 234 237 239 241 243 245 245 245 246 247 246 246 246 245 244 242 237 232 228 227 228 229 228 228 230 232 233 234 235 234 234 235 236 236 235 234 233 234 235 237 239 239 240 242 244 248 250 251 252 254 255
111 109 111 118 125 122 114 114 114 100 88 82 79 81 84 255 248 246 242 234 230 228 225 225 227 228 228 226 224 223 223 223 225 227 231 234 237 239 239 239 241 242 243 244 246 244 243 243 242 241 240 237 234 233 231 228 226 228 231 231 231 233 236 238 238 237 238 240 240 241 241 241 241 242 242 242 243 243 244 246 248 251 252 254 256 257
107 102 100 102 106 111 115 115 108 92 76 59 46 19 332 310 273 256 246 235 232 232 231 233 235 235 235 236 234 232 231 231 228 225 227 230 232 233 233 232 233 235 237 239 240 239 240 240 240 240 240 238 236 234 232 230 228 230 233 233 232 234 236 237 238 239 241 241 241 241 243 245 247 248 247 247 247 248 249 251 252 254 256 258 259 259
104 101 96 96 97 101 107 111 105 87 65 42 22 355 317 294 280 269 258 249 244 239 236 235 235 233 234 234 232 230 233 237 236 233 231 230 229 229 230 232 234 235 236 237 238 239 240 241 241 241 240 238 237 235 235 234 232 231 232 234 235 237 238 239 242 245 246 244 244 244 246 247 249 250 249 249 251 253 256 258 258 258 258 259 259 259
85 94 97 93 85 78 80 84 1 335 343 340 337 329 309 292 284 278 270 264 259 252 246 243 240 239 238 235 231 230 231 236 241 242 242 241 239 235 232 232 234 236 237 238 239 239 239 238 238 238 238 238 238 238 238 239 238 237 237 239 242 244 246 247 249 251 251 250 249 251 253 254 253 253 252 252 253 255 257 260 262 262 260 260 259 259
56 55 62 68 61 54 46 24 351 334 324 311 303 301 295 287 284 282 277 272 268 261 255 251 248 248 248 245 241 238 237 238 242 246 250 253 252 249 245 243 242 242 240 240 239 239 240 239 238 238 240 241 241 242 243 244 245 244 244 245 247 247 248 249 250 251 252 252 252 253 255 256 256 256 256 256 256 257 257 259 262 265 265 262 262 262